Regional Weather Roundup
Issued by NWS Grand Forks, ND

Home | Current Version | Previous Version | Graphics & Text | Print | Product List | Glossary On
Versions: 1 2 3 4 5 6 7 8 9 10 11 12 13 14 15 16 17 18 19 20 21 22 23 24 25 26 27 28 29 30 31 32 33 34 35 36 37 38 39 40 41 42 43 44 45 46 47 48 49 50
000
ASUS43 KFGF 200531
RWRFGF
PRAIRIE TO PINES  WEATHER ROUNDUP
NATIONAL WEATHER SERVICE EASTERN NORTH DAKOTA/GRAND FORKS ND
1200 AM CDT SUN MAY 20 2018

 **SATELLITE DATA USED TO AUGMENT SKY COVER AT AUTOMATED STATIONS**
 *****  WEATHER ACROSS EASTERN NORTH DAKOTA  *****

CITY           SKY/WX    TMP DP  RH WIND       PRES   REMARKS
GRAND FORKS    FAIR      44  39  82 W3        30.21S
GRAND FRKS AFB FAIR      41  41  99 W3        30.22R
GRAND FRKS NWS   N/A     48  39  71 SW3       30.19S
DEVILS LAKE    FAIR      47  41  80 W5        30.25R
FARGO          FAIR      49  35  58 NE5       30.21S
WAHPETON ARPT  FAIR      50  30  46 NE10      30.20S
$$

 ***** WEATHER ACROSS CENTRAL AND WESTERN NORTH DAKOTA  *****

CITY           SKY/WX    TMP DP  RH WIND       PRES   REMARKS
BISMARCK       FAIR      48  40  73 CALM      30.26S
MINOT          FAIR      51  31  46 SW7       30.22S
JAMESTOWN      FAIR      45  39  79 N7        30.23S
MINOT AFB      FAIR      51  28  41 SW8       30.21S
GARRISON         N/A     47  30  51 CALM      30.24S
WILLISTON      FAIR      45  34  65 CALM      30.25R
DICKINSON      FAIR      42  32  67 S7        30.25R
HETTINGER      FAIR      41  33  73 CALM      30.28R
$$

 *****  OTHER AIRPORT OBSERVATIONS IN OUR AREA  *****

CITY           SKY/WX    TMP DP  RH WIND       PRES   REMARKS
WALHALLA       FAIR      43  37  81 CALM      30.22S
GRAFTON AIRPOR FAIR      48  43  81 W8        30.23S
VALLEY CITY AR FAIR      48  39  71 CALM      30.26R
CANDO          FAIR      46  39  76 S7        30.25S
CAVALIER APRT    N/A     45  37  76 W6        30.21S
GWINNER          N/A     48  32  53 CALM      30.22R
ROLLA          FAIR      48  36  61 S6        30.23S
 ***** THE ABOVE OBSERVATIONS ARE NON NWS ARE NOT QUALITY
       CONTROLLED AND MAY MIS-REPORT RAIN FOR SNOW...
$$

  *****  WEATHER ACROSS NORTHERN MINNESOTA  *****

CITY           SKY/WX    TMP DP  RH WIND       PRES   REMARKS
FLAG ISLAND    FAIR      52  36  54 SW8       30.18S
WARROAD        FAIR      46  37  71 SW5       30.22R
ROSEAU         FAIR      46  39  76 S5        30.21S
HALLOCK        FAIR      46  39  76 CALM      30.21R
THF RVR FALLS  FAIR      45  36  70 CALM      30.23R
BAUDETTE       FAIR      41  38  89 CALM      30.21R
WASKISH        FAIR      36  34  93 CALM      30.22S
CROOKSTON      FAIR      46  37  71 CALM      30.24R
STEPHEN NDAWN    N/A     48  36  61 SW3         N/A
GREENBUSH NDAW   N/A     46  39  76 S3          N/A
$$
  *****  WEATHER ACROSS CENTRAL AND WEST MINNESOTA  *****

CITY           SKY/WX    TMP DP  RH WIND       PRES   REMARKS
FOSSTON        FAIR      39  32  75 CALM      30.24R
BEMIDJI        FAIR      36  33  87 NW3       30.22S
PARK RAPIDS    FAIR      49  34  56 NE5       30.21R
ELBOW LAKE     FAIR      53  36  52 NE5       30.20R
WADENA         FAIR      45  34  65 N6        30.20S
DETROIT LAKES  FAIR      50  36  57 NE3       30.24R
MOORHEAD       FAIR      48  34  57 NE5       30.22S
FERGUS FALLS   FAIR      48  34  57 NE5       30.18R
MORRIS MN      FAIR      52  34  50 NE8       30.18R
STAPLES        FAIR      46  32  57 NE3       30.21R
$$
  *****  WEATHER ELSEWHERE ACROSS MINNESOTA  *****

CITY           SKY/WX    TMP DP  RH WIND       PRES   REMARKS
DULUTH         FAIR      42  36  79 NE6       30.21R
INTRNTL FALLS  FAIR      37  36  96 CALM      30.21R
ELY            FAIR      34  32  93 CALM      30.21S
CLOQUET        FAIR      43  36  75 NE5       30.20S
WHEATON        FAIR      50  28  43 N3        30.21R
BRAINERD       FAIR      48  37  65 NE5       30.20R
HIBBING        FAIR      34  32  92 NW3       30.21R
ALEXANDRIA     FAIR      53  35  50 NE9       30.19R
SAINT CLOUD    FAIR      49  40  71 NE8       30.17R
MINNEAPOLIS    MOCLDY    52  40  63 NE14G29   30.15R
$$

  *****  WEATHER ACROSS SOUTH DAKOTA  *****

CITY           SKY/WX    TMP DP  RH WIND       PRES   REMARKS
SIOUX FALLS    CLOUDY    55  48  77 NE10      30.12R
BROOKINGS      MOCLDY    54  41  61 NE8       30.15R
WATERTOWN      FAIR      51  35  54 NE9       30.15R
HURON          FAIR      55  37  50 N12       30.15R
SISSETON         N/A     50  34  54 N10       30.18R
ABERDEEN       FAIR      52  32  46 N9        30.20R
MITCHELL       CLOUDY    58  39  49 N12       30.13R
PIERRE         FAIR      51  40  65 N13       30.19S
MOBRIDGE       FAIR      55  38  52 NE13      30.22R
RAPID CITY     MOCLDY    43  38  82 N8        30.26R
$$

  *****  SOME WEATHER IN NEARBY STATES *****

CITY           SKY/WX    TMP DP  RH WIND       PRES   REMARKS
GLASGOW MT     FAIR      50  39  66 E13       30.20S
GREAT FALLS MT CLOUDY    51  45  79 S3        30.12R
CHEYENNE WY    CLOUDY    38  38 100 E8        30.27R FOG
SCOTTSBLUFF NE CLOUDY    44  42  93 W5        30.28R
OMAHA NE       MOCLDY    59  56  89 N7        30.03S
DES MOINES IA  MOCLDY    65  57  75 N8        29.97R
DAVENPORT IA   MOCLDY    69  62  78 E5        29.97R
CHICAGO IL     CLOUDY    60  55  83 E6        29.99F
EAU CLAIRE WI  CLOUDY    49  38  65 NE12G23   30.12R
LA CROSSE WI   CLOUDY    56  44  64 N10       30.08R
$$

  *****  SOME NATIONAL WEATHER *****

CITY           SKY/WX    TMP DP  RH WIND       PRES   REMARKS
LA GUARDIA NY  FOG       55  54  96 E5        30.04F VSB 1/4
RALEIGH NC     MOCLDY    69  69 100 SW7       30.14S
ATLANTA GA     MOCLDY    74  70  87 SE5       30.10S
NEW ORLEANS LA FAIR      79  74  84 SE8       30.03S
OKLAHOMA CITY  TSTM      77  48  35 SW14G45   29.95F
ALBUQUERQUE NM FAIR      70  17  13 E30G37    29.97R
SALT LAKE CITY FAIR      67  46  47 CALM      29.96R
LOS ANGELES CA CLOUDY    60  55  83 W8        29.93R
BOISE ID       FAIR      64  48  56 SE6       29.88R
SEATTLE WA     LGT RAIN  61  59  93 CALM      29.98R
$$

*** WEATHER ACROSS MANITOBA...SASKATCHEWAN AND ONTARIO ***
                ***ONTARIO***

CITY           SKY/WX    TMP DP  RH WIND       PRES   REMARKS
GERALDTON      CLEAR     36  34  93 W8        30.14R
THUNDER BAY    CLEAR     34  30  86 W6        30.20F
SIOUX LOOKOUT  CLEAR     45  34  65 S6        30.14S
TORONTO        CLOUDY    57  55  94 W6        29.82S
BIG TROUT LK   CLOUDY    48  25  40 W6        29.90F
PICKLE LAKE    NOT AVBL
DRYDEN         CLEAR     46  36  66 S8        30.15S
KENORA         CLEAR     50  36  57 W8        30.18S
$$
                *** MANITOBA***

CITY           SKY/WX    TMP DP  RH WIND       PRES   REMARKS
BRANDON        PTCLDY    46  25  42 E5        30.20S
DAUPHIN        CLEAR     46  30  53 SW5       30.16F
ISLAND LAKE    PTCLDY    54  28  37 W7        29.98F
PILOT MOUND      N/A     43  36  75 S8          N/A
THE PAS        CLEAR     57  34  41 SW3       30.03S
THOMPSON       MOCLDY    48  43  81 VRB2      29.98F
WINNIPEG       CLEAR     41  32  70 CALM      30.19R
LYNN LAKE      CLOUDY    46  41  81 N6        30.02R
CHURCHILL      FLURRIES  28  25  86 N24G35    30.02R WCI  14
GILLAM         PTCLDY    36  34  93 NE6       30.00R
$$
                ***SASKATCHEWAN***

CITY           SKY/WX    TMP DP  RH WIND       PRES   REMARKS
ESTEVAN        PTCLDY    45  27  49 SW8       30.22S
KINDERSLEY     PTCLDY    54  25  32 S9        30.12R
LLOYDMINSTER   CLEAR     54  32  43 S8        30.06R
PRINCE ALBERT  PTCLDY    54  30  40 W3        30.12S
REGINA         CLEAR     50  23  34 W3        30.21R
YORKTON        CLEAR     57  34  41 SW9       30.17S
N. BATTLEFORD  CLEAR     48  27  43 SE9       30.11S
LA RONGE       CLEAR     55  37  50 SW5       30.05S
SASKATOON      PTCLDY    50  28  43 S10       30.14S
SWIFT CURRENT  CLEAR     46  28  49 S12       30.18S
$$
NOTE: THESE ARE AUTOMATED STATIONS WITH LIMITED QUALITY CONTROL
      "FAIR" INDICATES FEW OR NO CLOUDS BELOW 12,000 FEET WITH NO
      SIGNIFICANT WEATHER AND/OR OBSTRUCTIONS TO VISIBILITY.
      SKY/WX - SKY CONDITION AND SIGNIFICANT WEATHER.
      TMP - AIR TEMPERATURE.    DP   - DEWPOINT TEMPERATURE.
      RH  - RELATIVE HUMIDITY.  PRES - PRESSURE.
      HX  - HEAT INDEX.         WCI  - WIND CHILL INDEX.
$




USA.gov is the U.S. government's official web portal to all federal, state and local government web resources and services.